Location: The Stocker AstroScience Center
(25.7579°N, 80.3725°W)
Time: 22:41:09

ISS - Pass Details

Date: 02 March 2018
Orbit: 403 x 406 km, 51.6° (Epoch: 24 March)

Event Time Altitude Azimuth Distance (km) Brightness Sun altitude
Rises 12:42:51 0° 318° (NW) 2,314 -0.2 57.1°
Reaches altitude 10° 12:44:56 10° 318° (NW) 1,452 -1.1 57.1°
Maximum altitude 12:48:11 89° 234° (SW) 405 -2.7 57.0°
Drops below altitude 10° 12:51:26 10° 140° (SE) 1,445 -0.6 56.9°
Sets 12:53:30 0° 140° (SE) 2,300 0.3 56.9°
